Location: Unspecified
(0.0000°N, 0.0000°E)
Time: 01:25:42
(UTC+00:00)

Hubble Space Telescope - Pass Details

Date: 18 October 2017
Orbit: 537 x 541 km, 28.5° (Epoch: 20 October)

Event Time Altitude Azimuth Distance (km) Brightness Sun altitude
Rises 18:16:44 0° 282° (WNW) 2,669 5.8 -7.8°
Reaches altitude 10° 18:21:26 10° 330° (NNW) 1,775 3.7 -9.0°
Maximum altitude 18:21:40 10° 333° (NNW) 1,772 3.6 -9.0°
Drops below altitude 10° 18:21:55 10° 337° (NNW) 1,775 3.6 -9.1°
Sets 18:26:37 0° 25° (NNE) 2,661 4.0 -10.2°
Enters shadow 18:26:40 - 25° (NNE) 2,674 4.0 -10.2°
